Regional Weather Roundup
Issued by NWS

Home | Current Version | Previous Version | Graphics & Text | Print | Product List | Glossary On
Versions: 1 2 3 4 5 6 7 8 9 10 11 12 13 14 15 16 17 18 19 20 21 22 23 24 25 26 27 28 29 30 31 32 33 34 35 36 37 38 39 40 41 42 43 44 45 46 47 48 49 50
000
ASUS45 KBOU 240707
RWRCO

WEATHER ROUNDUP FOR COLORADO
NATIONAL WEATHER SERVICE DENVER/BOULDER CO
1200 AM MST TUE JAN 24 2017

NOTE: "FAIR" INDICATES FEW OR NO CLOUDS BELOW 12000 FEET WITH NO
SIGNIFICANT WEATHER AND/OR OBSTRUCTIONS TO VISIBILITY.

COZ001>005-013-030-031-240800-
...NORTHWEST COLORADO...

CITY           SKY/WX    TMP DP  RH WIND       PRES   REMARKS
CRAIG          CLOUDY    30  19  63 SW10      29.53S WCI  21
HAYDEN         CLOUDY    25  18  74 E6        29.53S WCI  18
MEEKER         CLOUDY    29  20  69 SW9       29.54R WCI  20
MOUNT WERNER   NOT AVBL
STEAMBOAT SPGS CLOUDY    25  18  76 SW3       29.53R
WALDEN           N/A     21  14  73 SE5       29.52F WCI  15
$$

COZ006>008-011-240800-
...WEST CENTRAL VALLEYS...

CITY           SKY/WX    TMP DP  RH WIND       PRES   REMARKS
GRAND JUNCTION FAIR      31  29  92 E3        29.56F
MONTROSE       FAIR      32  22  66 E8        29.59F WCI  25
EAGLE          FAIR      23  20  88 E8        29.58R WCI  14
RIFLE          MOCLDY    28  25  88 SW3       29.57S
DELTA          FAIR      33  27  78 NE6       29.58F WCI  28
NUCLA          CLOUDY    32  23  69 W5        29.64S WCI  27
$$

COZ017>023-064>068-240800-
...SOUTHWEST COLORADO...

CITY           SKY/WX    TMP DP  RH WIND       PRES   REMARKS
DURANGO        FAIR      25  20  81 SW5       29.60F WCI  19
CORTEZ         MOCLDY    25  24  96 NE3       29.62F
PAGOSA SPRINGS MOCLDY    26  26  99 CALM      29.60F
TELLURIDE      LGT SNOW  21  17  82 NW5       29.57F WCI  15
WOLF CREEK PAS CLOUDY    12  10  92 SW22G35   29.56F WCI  -7
$$

COZ009-010-012-014-032>034-037-058>063-240800-
...CENTRAL COLORADO...

CITY           SKY/WX    TMP DP  RH WIND       PRES   REMARKS
ASPEN          FAIR      23  18  81 N6        29.50F WCI  16
BUENA VISTA    FAIR      22  13  69 CALM      29.54R
COPPER MTN     LGT SNOW  14   1  57 MISG      29.50F
BERTHOUD PASS  CLOUDY     7  -4  61 MISG      29.50F
COTTONWOOD PAS CLOUDY    23  12  63 SW8       29.53R WCI  14
GUNNISON       FLURRIES  22  18  85 CALM      29.59S
KREMMLING      MOCLDY    23  18  80 SE5       29.56S WCI  17
LEADVILLE      CLOUDY    15  10  80 NE7       29.50F WCI   5
MONARCH PASS   CLOUDY    10   7  85 SW9       29.61S WCI  -2
SALIDA         FAIR      28  18  64 SW9       29.61F WCI  20
SUNLIGHT       CLOUDY    10   9  92 SW14G23   29.53F WCI  -5
WILKERSON PASS CLOUDY   N/A N/A N/A SW10G20   29.52F
$$

COZ069>075-240800-
...SAN LUIS VALLEY/SANGRE DE CRISTO MOUNTAINS...

CITY           SKY/WX    TMP DP  RH WIND       PRES   REMARKS
ALAMOSA        CLOUDY    28  26  92 N3        29.56S
LA VETA PASS   LGT SNOW  23  21  93 NE14G33   29.53S WCI  11
SAGUACHE       CLOUDY    27  19  74 NW10      29.57R WCI  17
$$

COZ035-036-038>040-240800-
...NORTHERN COLORADO FRONT RANGE...

CITY           SKY/WX    TMP DP  RH WIND       PRES   REMARKS
DENVER INTL AP CLOUDY    32  25  75 N13       29.51F WCI  22
DMNS CITY PARK   N/A     33  28  81 MISG      29.51F
AURORA         MOCLDY    31  26  84 NW6       29.52F WCI  25
FRONT RANGE AP CLOUDY    32  28  86 N6        29.51F WCI  26
ERIE MUNI ARPT FAIR      32  31  96 CALM      29.54S
BOULDER MUN AP FAIR      32  32 100 CALM      29.54S
CENTENNIAL     CLOUDY    32  26  78 NW10      29.51F WCI  24
BROOMFIELD     FAIR      32  32 100 N9        29.53F WCI  24
FORT COLLINS   FAIR      32  30  92 CALM      29.54R
LONGMONT       FAIR      34  32  91 NW3       29.55F
$$

COZ041-046-047-076>085-087-088-240800-
...PIKES PEAK/PALMER DIVIDE AND SOUTHERN FOOTHILLS...

CITY           SKY/WX    TMP DP  RH WIND       PRES   REMARKS
COLO. SPRINGS  CLOUDY    40  19  43 NW12      29.47F
A. F. ACADEMY  FAIR      37  16  42 NW10      29.48F
SCHRIEVER AFB  MOCLDY    36  24  60 NW7       29.48F
ELLICOTT       MOCLDY   N/A N/A N/A CALM      29.46F
FALCON         FAIR      36  18  49 NW10      29.48F
FORT CARSON    FAIR      36  25  65 S7        29.47F
LIMON          FAIR      29  25  85 CALM      29.48S
MONUMENT HILL  FAIR      28  27  93 N8        29.52F WCI  20
TRINIDAD       CLOUDY    41  29  62 NW9G23    29.50S
$$

COZ042>045-048>051-090-091-240800-
...NORTHEAST COLORADO...

CITY           SKY/WX    TMP DP  RH WIND       PRES   REMARKS
GREELEY ARPT   FAIR      33  31  92 N12       29.54F WCI  24
AKRON          FAIR      31  25  78 NE5       29.47F WCI  26
BURLINGTON     FAIR      31  27  85 CALM      29.46F
WRAY           FAIR      32  30  93 E8        29.47F WCI  25
STERLING       FAIR      32  28  86 NE6       29.49F WCI  26
HOLYOKE        FAIR      34  32  93 NE9       29.49F WCI  26
FORT MORGAN    FAIR      33  25  72 N7        29.53R WCI  27
$$

COZ086-089-092>099-240800-
...SOUTHEAST COLORADO...

CITY           SKY/WX    TMP DP  RH WIND       PRES   REMARKS
PUEBLO         MOCLDY    42  30  62 W10       29.47F
LA JUNTA       FAIR      36  31  82 SW8       29.46F
LAMAR          FAIR      31  26  82 W5        29.45F WCI  26
SPRINGFIELD      N/A     33  27  78 W9        29.49F WCI  25
$$



USA.gov is the U.S. government's official web portal to all federal, state and local government web resources and services.